Retour au catalogue

STARLINK-4355

ActifCommunicationsSSO
NORAD 53048·PAYLOAD·🇺🇸 United States

Lancé Jul 11, 2022 depuis Vandenberg Space Force Base

Loading…

Prochains Passages (prochaines 24 heures)

TLE

FraisSource: CelesTrak SupGP

Époque: Sep 14, 2026, 21:43 UTC

1 53048C 22077F   26257.90534722  .00075516  00000+0  23440-2 0  2577
2 53048  97.2857  73.7343 0001122  96.8615 203.7502 15.33404347    12

Suivez STARLINK-4355 en temps réel avec AllMySat

Download on the App Store